Location: Newark
(56.0692°N, 115.8617°E)
Time: 09:21:29
(UTC+00:00)

A-11 Canister half - All Passes

Search period start: 30 May 2020 00:00
Search period end: 09 June 2020 00:00
Orbit: 1526 x 1683 km, 47.3° (Epoch: 29 May)

Date Brightness Start Highest point End Pass type
(mag) Time Alt. Az. Time Alt. Az. Time Alt. Az.
30 May - 01:06:21 10° SW 01:14:59 44° SSE 01:23:51 10° E daylight
30 May - 03:09:55 10° WSW 03:18:51 50° S 03:28:03 10° ESE daylight
30 May - 05:14:15 10° W 05:22:30 35° SSW 05:31:00 10° SSE daylight
30 May - 07:20:43 10° W 07:25:12 14° SW 07:29:45 10° SSW daylight
30 May - 22:43:36 10° S 22:50:18 23° SE 22:57:06 10° E daylight
31 May - 00:44:49 10° SW 00:53:24 44° SSE 01:02:13 10° E daylight
31 May - 02:48:19 10° WSW 02:57:15 51° S 03:06:26 10° ESE daylight
31 May - 04:52:38 10° W 05:00:56 36° SSW 05:09:28 10° SSE daylight
31 May - 06:58:52 10° W 07:03:41 15° SW 07:08:35 10° SSW daylight
31 May - 22:22:15 10° S 22:28:47 22° SE 22:35:22 10° E daylight
01 Jun - 00:23:17 10° SW 00:31:50 43° SSE 00:40:34 10° E daylight
01 Jun - 02:26:44 10° WSW 02:35:39 51° S 02:44:49 10° ESE daylight
01 Jun - 04:31:01 10° W 04:39:21 37° SSW 04:47:56 10° SE daylight
01 Jun - 06:37:02 10° W 06:42:09 16° SW 06:47:21 10° SSW daylight
01 Jun - 22:00:55 10° S 22:07:15 21° SE 22:13:39 10° E daylight
02 Jun - 00:01:46 10° SW 00:10:15 42° SSE 00:18:56 10° E daylight
02 Jun - 02:05:09 10° WSW 02:14:03 51° S 02:23:12 10° ESE daylight
02 Jun - 04:09:24 10° W 04:17:47 37° SSW 04:26:24 10° SE daylight
02 Jun - 06:15:14 10° W 06:20:37 17° SW 06:26:06 10° SSW daylight
02 Jun - 21:39:35 10° S 21:45:44 20° SE 21:51:55 10° E daylight
02 Jun - 23:40:14 10° SW 23:48:41 41° SSE 23:57:18 10° E daylight
03 Jun - 01:43:35 10° WSW 01:52:28 51° S 02:01:35 10° ESE daylight
03 Jun - 03:47:47 10° W 03:56:12 38° SSW 04:04:51 10° SE daylight
03 Jun - 05:53:28 10° W 05:59:06 17° SW 06:04:49 10° S daylight
03 Jun - 21:18:17 10° S 21:24:12 19° SE 21:30:10 10° E daylight
03 Jun - 23:18:43 10° SW 23:27:07 40° SSE 23:35:39 10° E daylight
04 Jun - 01:21:59 10° WSW 01:30:52 51° S 01:39:58 10° ESE daylight
04 Jun - 03:26:11 10° W 03:34:38 39° SSW 03:43:18 10° SE daylight
04 Jun - 05:31:42 10° W 05:37:33 18° SW 05:43:31 10° S daylight
04 Jun - 20:56:59 10° S 21:02:41 18° SE 21:08:24 10° E daylight
04 Jun - 22:57:12 10° SW 23:05:33 39° SSE 23:14:01 10° E daylight
05 Jun - 01:00:24 10° WSW 01:09:16 51° S 01:18:21 10° ESE daylight
05 Jun - 03:04:34 10° W 03:13:03 40° SSW 03:21:45 10° SE daylight
05 Jun - 05:09:59 10° W 05:16:02 19° SW 05:22:12 10° S daylight
05 Jun - 20:35:44 10° S 20:41:10 17° SE 20:46:38 10° E daylight
05 Jun - 22:35:41 10° SW 22:43:59 38° SSE 22:52:23 10° E daylight
06 Jun - 00:38:49 10° WSW 00:47:41 51° S 00:56:44 10° ESE daylight
06 Jun - 02:42:58 10° W 02:51:28 41° SSW 03:00:11 10° SE daylight
06 Jun - 04:48:15 10° W 04:54:29 20° SW 05:00:51 10° S daylight
06 Jun - 20:14:29 10° SSE 20:19:40 16° SE 20:24:50 10° E daylight
06 Jun - 22:14:11 10° SW 22:22:25 37° SSE 22:30:45 10° E daylight
07 Jun - 00:17:15 10° WSW 00:26:06 51° S 00:35:07 10° ESE daylight
07 Jun - 02:21:22 10° W 02:29:54 41° SSW 02:38:38 10° SE daylight
07 Jun - 04:26:33 10° W 04:32:57 21° SW 04:39:30 10° S daylight
07 Jun - 19:53:17 10° SSE 19:58:09 16° SE 20:03:01 10° E daylight
07 Jun - 21:52:41 10° SW 22:00:51 36° SSE 22:09:06 10° E daylight
07 Jun - 23:55:40 10° WSW 00:04:30 50° S 00:13:29 10° ESE daylight
08 Jun - 01:59:45 10° W 02:08:19 42° SSW 02:17:04 10° SE daylight
08 Jun - 04:04:51 10° W 04:11:25 22° SW 04:18:07 10° S daylight
08 Jun - 19:32:07 10° SSE 19:36:38 15° SE 19:41:11 10° E daylight
08 Jun - 21:31:11 10° SSW 21:39:18 36° SSE 21:47:28 10° E daylight
08 Jun - 23:34:06 10° WSW 23:42:55 50° S 23:51:53 10° ESE daylight
